Regional Weather Roundup
Issued by NWS

Home | Current Version | Previous Version | Text Only | Print | Product List | Glossary Off
Versions: 1 2 3 4 5 6 7 8 9 10 11 12 13 14 15 16 17 18 19 20 21 22 23 24 25 26 27 28 29 30 31 32 33 34 35 36 37 38 39 40 41 42 43 44 45 46 47 48 49 50

000
ASUS45 KCYS 242210
RWRWY

WYOMING REGIONAL WEATHER ROUNDUP
NATIONAL WEATHER SERVICE CHEYENNE WY
400 PM MDT FRI APR 24 2015

NOTE:  "FAIR" INDICATES FEW OR NO CLOUDS BELOW 12,000 FEET
WITH NO SIGNIFICANT WEATHER AND/OR OBSTRUCTIONS TO VISIBILITY.

WYZ001-242300-
YELLOWSTONE NATIONAL PARK

CITY           SKY/WX    TMP DP  RH WIND       PRES   REMARKS
LK YELLOWSTONE   N/A     43  26  51 W9G20     29.74R
W YELLOWSTONE  NOT AVBL

$$
WYZ002>013-054>058-071-098>099-242300-
NORTHERN WYOMING

CITY           SKY/WX    TMP DP  RH WIND       PRES   REMARKS
JACKSON        PTSUNNY   52  28  40 W16       29.67S
CODY           FAIR      63  32  31 NE8       29.56F
GREYBULL       FAIR      71  23  16 E7        29.51F
WORLAND        FAIR      71  22  15 VRB3      29.52F
SHERIDAN       FAIR      64  40  41 N18       29.56F
BUFFALO        FAIR      65  34  31 W5        29.59F
GILLETTE       FAIR      65  36  34 SE12      29.57F
HULETT         MOCLDY    68  21  17 SE8G17    29.60F
NEWCASTLE      FAIR      50  39  66 E13G20    29.61F

$$
WYZ014>020-022>026-101>103-242300-
CENTRAL WYOMING

CITY           SKY/WX    TMP DP  RH WIND       PRES   REMARKS
BIG PINEY      CLOUDY    54  28  36 W22G28    29.72S
PINEDALE       FAIR      48  34  57 NE8       29.71F
DUBOIS         FAIR      52  23  32 SW17      29.64S
LANDER         PTSUNNY   58  30  34 W20G29    29.59S
RIVERTON       CLOUDY    60  38  43 W23       29.60R
CASPER         FAIR      67  13  12 NW10      29.57F
DOUGLAS        FAIR      68  28  22 NW10G22   29.57F

$$
WYZ021-027>030-104>119-242300-
SOUTHERN WYOMING

CITY           SKY/WX    TMP DP  RH WIND       PRES   REMARKS
EVANSTON       CLOUDY    53  30  41 W29G37    29.71F
KEMMERER       MOCLDY    46  36  66 CALM      29.73F
FORT BRIDGER   PTCLDY    57  28  33 W21G28    29.74F
ROCK SPRINGS   CLOUDY    43  37  79 SW28G35   29.77R
DIXON          MOCLDY    58  25  28 W10       29.72S
RAWLINS        PTSUNNY   52  30  43 W14       29.70F
SARATOGA       FAIR      57  27  30 W16G22    29.71F
LARAMIE        FAIR      50  32  50 W18       29.70F
CHEYENNE       FAIR      56  33  42 SW22      29.67R
TORRINGTON     FAIR      70  32  24 W8        29.54F
PINE BLUFFS    FAIR      57  32  38 S15       29.63S

$$



USA.gov is the U.S. government's official web portal to all federal, state and local government web resources and services.